• In France
  • List of Countries
  • For 7 days
  • Water Temperature
  • Satellite Maps
  • Weather Map
  • Weather Widgets
  • user-avatar
    Login

    Hourly Weather Bucaramanga

    Today, 21 October, Sunday

    Time Temperature Precipitation Wind Pressure Humidity
    00:00 +20°C° 0.8 mm 0 mps 671 mmHg 92%
    01:00 +22°C° 0 mm 1 mps 671 mmHg 93%
    02:00 +21°C° 0.5 mm 1 mps 671 mmHg 93%
    03:00 +19°C° 0.5 mm 0 mps 671 mmHg 93%
    04:00 +19°C° 0.5 mm 0 mps 671 mmHg 93%
    05:00 +20°C° 0.5 mm 0 mps 671 mmHg 92%
    06:00 +20°C° 0.5 mm 0 mps 672 mmHg 91%
    07:00 +20°C° 0.5 mm 0 mps 672 mmHg 90%
    08:00 +21°C° 0.4 mm 0 mps 673 mmHg 86%
    09:00 +24°C° 0.4 mm 1 mps 673 mmHg 82%
    10:00 +25°C° 0.4 mm 1 mps 673 mmHg 79%
    11:00 +26°C° 0.5 mm 1 mps 673 mmHg 77%
    12:00 +26°C° 0.5 mm 1 mps 672 mmHg 75%
    13:00 +27°C° 0.5 mm 1 mps 671 mmHg 73%
    14:00 +26°C° 0.8 mm 1 mps 671 mmHg 76%
    15:00 +26°C° 0.8 mm 1 mps 670 mmHg 78%
    16:00 +26°C° 0.8 mm 1 mps 670 mmHg 81%
    17:00 +25°C° 1.8 mm 1 mps 670 mmHg 85%
    18:00 +24°C° 1.8 mm 1 mps 670 mmHg 89%
    19:00 +21°C° 1.8 mm 0 mps 671 mmHg 93%
    20:00 +21°C° 1.5 mm 0 mps 671 mmHg 93%
    21:00 +20°C° 1.5 mm 0 mps 672 mmHg 93%
    22:00 +22°C° 1.5 mm 1 mps 672 mmHg 93%
    23:00 +22°C° 0.8 mm 1 mps 672 mmHg 93%

    Tomorrow, 22 October, Monday

    Time Temperature Precipitation Wind Pressure Humidity
    00:00 +22°C° 0.8 mm 1 mps 671 mmHg 93%
    01:00 +20°C° 0.8 mm 0 mps 671 mmHg 93%
    02:00 +19°C° 0.8 mm 0 mps 671 mmHg 93%
    03:00 +19°C° 0.8 mm 0 mps 671 mmHg 93%
    04:00 +19°C° 0.8 mm 0 mps 671 mmHg 93%
    05:00 +20°C° 0.6 mm 0 mps 671 mmHg 92%
    06:00 +20°C° 0.6 mm 0 mps 672 mmHg 91%
    07:00 +20°C° 0.6 mm 0 mps 672 mmHg 89%
    08:00 +23°C° 0.3 mm 1 mps 673 mmHg 85%
    09:00 +25°C° 0.3 mm 1 mps 673 mmHg 80%
    10:00 +26°C° 0.3 mm 1 mps 674 mmHg 75%
    11:00 +26°C° 0.3 mm 1 mps 673 mmHg 74%
    12:00 +27°C° 0.3 mm 1 mps 672 mmHg 73%
    13:00 +27°C° 0.3 mm 1 mps 672 mmHg 72%
    14:00 +27°C° 1.2 mm 1 mps 671 mmHg 75%
    15:00 +26°C° 1.2 mm 1 mps 671 mmHg 78%
    16:00 +26°C° 1.2 mm 1 mps 670 mmHg 81%
    17:00 +25°C° 2 mm 1 mps 671 mmHg 84%
    18:00 +24°C° 2 mm 1 mps 671 mmHg 88%
    19:00 +23°C° 2 mm 1 mps 671 mmHg 92%
    20:00 +20°C° 1.5 mm 0 mps 672 mmHg 92%
    21:00 +20°C° 1.5 mm 0 mps 672 mmHg 92%
    22:00 +20°C° 1.5 mm 0 mps 673 mmHg 93%
    23:00 +20°C° 1.3 mm 0 mps 672 mmHg 93%

    Day after tomorrow, 23 October, Tuesday

    Time Temperature Precipitation Wind Pressure Humidity
    00:00 +20°C° 1.3 mm 0 mps 672 mmHg 93%
    01:00 +19°C° 1.3 mm 0 mps 672 mmHg 94%
    02:00 +19°C° 1 mm 0 mps 671 mmHg 94%
    03:00 +19°C° 1 mm 0 mps 671 mmHg 94%
    04:00 +19°C° 1 mm 0 mps 671 mmHg 94%
    05:00 +19°C° 0.4 mm 0 mps 671 mmHg 93%
    06:00 +20°C° 0.4 mm 0 mps 672 mmHg 92%
    07:00 +20°C° 0.4 mm 0 mps 672 mmHg 91%
    08:00 +24°C° 0.3 mm 1 mps 673 mmHg 84%
    09:00 +25°C° 0.3 mm 1 mps 674 mmHg 78%
    10:00 +27°C° 0.3 mm 1 mps 674 mmHg 72%
    11:00 +27°C° 0.4 mm 1 mps 673 mmHg 72%
    12:00 +27°C° 0.4 mm 1 mps 672 mmHg 72%
    13:00 +27°C° 0.4 mm 1 mps 671 mmHg 72%
    14:00 +27°C° 1 mm 1 mps 671 mmHg 75%
    15:00 +26°C° 1 mm 1 mps 671 mmHg 78%
    16:00 +26°C° 1 mm 1 mps 670 mmHg 80%
    17:00 +25°C° 1.2 mm 1 mps 671 mmHg 84%
    18:00 +22°C° 1.2 mm 0 mps 671 mmHg 88%
    19:00 +21°C° 1.2 mm 0 mps 671 mmHg 91%
    20:00 +21°C° 1.6 mm 0 mps 672 mmHg 91%
    21:00 +21°C° 1.6 mm 0 mps 672 mmHg 92%
    22:00 +20°C° 1.6 mm 0 mps 673 mmHg 92%
    23:00 +20°C° 1.3 mm 0 mps 672 mmHg 92%

    24 October, Wednesday

    Time Temperature Precipitation Wind Pressure Humidity
    00:00 +20°C° 1.3 mm 0 mps 672 mmHg 93%
    01:00 +20°C° 1.3 mm 0 mps 672 mmHg 94%
    02:00 +20°C° 0.9 mm 0 mps 672 mmHg 94%
    03:00 +19°C° 0.9 mm 0 mps 671 mmHg 93%
    04:00 +19°C° 0.9 mm 0 mps 671 mmHg 93%
    05:00 +20°C° 0.6 mm 0 mps 672 mmHg 93%
    06:00 +20°C° 0.6 mm 0 mps 672 mmHg 92%
    07:00 +20°C° 0.6 mm 0 mps 673 mmHg 92%
    08:00 +21°C° 0.4 mm 0 mps 673 mmHg 87%
    09:00 +25°C° 0.4 mm 1 mps 673 mmHg 82%
    10:00 +26°C° 0.4 mm 1 mps 674 mmHg 77%
    11:00 +26°C° 0.3 mm 1 mps 673 mmHg 76%
    12:00 +27°C° 0.3 mm 1 mps 672 mmHg 74%
    13:00 +27°C° 0.3 mm 1 mps 672 mmHg 73%
    14:00 +26°C° 0.7 mm 1 mps 671 mmHg 76%
    15:00 +26°C° 0.7 mm 1 mps 671 mmHg 79%
    16:00 +26°C° 0.7 mm 1 mps 670 mmHg 81%
    17:00 +25°C° 1.3 mm 1 mps 670 mmHg 85%
    18:00 +24°C° 1.3 mm 1 mps 671 mmHg 89%
    19:00 +23°C° 1.3 mm 1 mps 671 mmHg 92%
    20:00 +22°C° 1.4 mm 1 mps 672 mmHg 93%
    21:00 +22°C° 1.4 mm 1 mps 672 mmHg 94%
    22:00 +22°C° 1.4 mm 1 mps 672 mmHg 94%
    23:00 +22°C° 1 mm 1 mps 672 mmHg 94%

    25 October, Thursday

    Time Temperature Precipitation Wind Pressure Humidity
    00:00 +20°C° 1 mm 0 mps 671 mmHg 94%
    01:00 +19°C° 1 mm 0 mps 671 mmHg 94%
    02:00 +19°C° 0.9 mm 0 mps 671 mmHg 94%
    03:00 +19°C° 0.9 mm 0 mps 671 mmHg 94%
    04:00 +19°C° 0.9 mm 0 mps 671 mmHg 94%
    05:00 +19°C° 0.6 mm 0 mps 671 mmHg 93%
    06:00 +20°C° 0.6 mm 0 mps 672 mmHg 92%
    07:00 +20°C° 0.6 mm 0 mps 673 mmHg 91%
    08:00 +23°C° 0.4 mm 1 mps 673 mmHg 88%
    09:00 +24°C° 0.4 mm 1 mps 673 mmHg 85%
    10:00 +25°C° 0.4 mm 1 mps 673 mmHg 82%
    11:00 +25°C° 0.6 mm 1 mps 673 mmHg 82%
    12:00 +25°C° 0.6 mm 1 mps 672 mmHg 82%
    13:00 +25°C° 0.6 mm 1 mps 671 mmHg 82%
    14:00 +25°C° 0.8 mm 1 mps 671 mmHg 84%
    15:00 +25°C° 0.8 mm 1 mps 670 mmHg 87%
    16:00 +24°C° 0.8 mm 1 mps 670 mmHg 90%
    17:00 +23°C° 0.3 mm 1 mps 670 mmHg 91%
    18:00 +23°C° 0.3 mm 1 mps 671 mmHg 91%
    19:00 +22°C° 0.3 mm 1 mps 671 mmHg 92%
    20:00 +22°C° 0.2 mm 1 mps 671 mmHg 92%
    21:00 +22°C° 0.2 mm 1 mps 672 mmHg 91%
    22:00 +22°C° 0.2 mm 1 mps 672 mmHg 90%
    23:00 +22°C° 0.3 mm 1 mps 672 mmHg 90%

    26 October, Friday

    Time Temperature Precipitation Wind Pressure Humidity
    00:00 +20°C° 0.3 mm 0 mps 671 mmHg 91%
    01:00 +19°C° 0.3 mm 0 mps 671 mmHg 91%
    02:00 +19°C° 0.2 mm 0 mps 671 mmHg 91%
    03:00 +19°C° 0.2 mm 0 mps 671 mmHg 91%
    04:00 +19°C° 0.2 mm 0 mps 671 mmHg 91%
    05:00 +19°C° 0.3 mm 0 mps 671 mmHg 90%
    06:00 +20°C° 0.3 mm 0 mps 672 mmHg 89%
    07:00 +20°C° 0.3 mm 0 mps 673 mmHg 88%
    08:00 +21°C° 0.6 mm 0 mps 673 mmHg 85%
    09:00 +22°C° 0.6 mm 0 mps 673 mmHg 83%
    10:00 +23°C° 0.6 mm 0 mps 673 mmHg 81%
    11:00 +25°C° 0.6 mm 1 mps 673 mmHg 81%
    12:00 +25°C° 0.6 mm 1 mps 672 mmHg 81%
    13:00 +25°C° 0.6 mm 1 mps 671 mmHg 81%
    14:00 +25°C° 0.5 mm 1 mps 671 mmHg 82%
    15:00 +25°C° 0.5 mm 1 mps 671 mmHg 84%
    16:00 +25°C° 0.5 mm 1 mps 670 mmHg 85%
    17:00 +24°C° 0.3 mm 1 mps 671 mmHg 88%
    18:00 +23°C° 0.3 mm 1 mps 671 mmHg 90%
    19:00 +20°C° 0.3 mm 0 mps 672 mmHg 92%
    20:00 +20°C° 0.2 mm 0 mps 672 mmHg 91%
    21:00 +20°C° 0.2 mm 0 mps 672 mmHg 90%
    22:00 +20°C° 0.2 mm 0 mps 673 mmHg 89%
    23:00 +20°C° 0.1 mm 0 mps 672 mmHg 89%
    Show more